Terug naar catalogus

COSMOS 1524

ActiefNavigatieLEO
NORAD 14613·PAYLOAD·🇷🇺 Russia

Gelanceerd Jan 5, 1984 vanaf Plesetsk Cosmodrome

Loading…

Volgende Passages (komende 24 uur)

TLE

VersSource: Space-Track

Epoch: Sep 14, 2026, 12:28 UTC

1 14613U 84001C   26257.51949863 -.00000018  00000-0 -81336-5 0  9992
2 14613  74.0066 289.4629 0031641 170.6454 343.0158 12.56748465958523

Volg COSMOS 1524 in realtime met AllMySat

Download on the App Store